This demonstration page uses our WeatherBlox Daily Observations layout. Learn more.

Left ArrowRight Arrow

44.89941, -97.11507

Hourly Observations for November 18, 2019

Temp ( °F °C ) Dew Point ( °F °C ) Humidity (%) Winds ( mph kmh ) Pressure ( in mb ) Visibility ( mi km ) Precip ( " mm )
12:53 am 00:53 Cloudy 31 -0.6 30 -1.1 96 96 SSE 8 13 29.77 1008 8 13 0.00 0.00
1:53 am 01:53 Cloudy 32 0 31 -0.6 96 96 S 12 19 29.75 1007 8 13 0.00 0.00
2:53 am 02:53 Cloudy 32 0 31 -0.6 96 96 SSE 9 15 29.74 1007 8 13 0.00 0.00
3:53 am 03:53 Partly Cloudy 33 0.6 31 -0.6 92 92 SSE 12 19 29.70 1006 9 14 0.00 0.00
4:53 am 04:53 Mostly Cloudy 33 0.6 31 -0.6 92 92 SSE 13 20 29.68 1005 9 14 0.00 0.00
5:53 am 05:53 Cloudy 33 0.6 32 0 96 96 SSE 12 19 29.67 1005 9 14 0.00 0.00
6:53 am 06:53 Mostly Cloudy 32 0 31 -0.6 96 96 S 6 9 29.68 1005 9 14 0.00 0.00
7:53 am 07:53 Sunny 32 0 30 -1.1 92 92 S 7 11 29.68 1005 10 16 0.00 0.00
8:53 am 08:53 Cloudy 35 1.7 33 0.6 93 93 S 7 11 29.66 1004 10 16 0.00 0.00
9:53 am 09:53 Mostly Cloudy 39 3.9 34 1.1 82 82 SSW 8 13 29.64 1004 10 16 0.00 0.00
10:53 am 10:53 Mostly Cloudy 43 6.1 37 2.8 80 80 SW 7 11 29.63 1003 10 16 0.00 0.00
11:53 am 11:53 Cloudy 46 7.8 39 3.9 77 77 W 9 15 29.61 1003 10 16 0.00 0.00
12:53 pm 12:53 Cloudy 46 7.8 38 3.3 73 73 WNW 9 15 29.62 1003 10 16 0.00 0.00
1:53 pm 13:53 Cloudy with Light Rain 43 6.1 39 3.9 86 86 WNW 12 19 29.63 1004 10 16 0.00 0.00
2:53 pm 14:53 Cloudy with Light Rain 42 5.6 41 5 96 96 NNW 12 19 29.65 1004 7 11 0.08 2.03
3:07 pm 15:07 Cloudy with Light Rain 42 5.6 41 5 96 96 NW 10 17 29.66 1004 6 10 0.01 0.25
3:09 pm 15:09 Cloudy with Light Rain 42 5.6 41 5 96 96 NW 10 17 29.66 1004 6 10 0.02 0.51
3:22 pm 15:22 Cloudy with Light Rain 42 5.6 41 5 96 96 NNW 9 15 29.66 1004 6 10 0.03 0.76
3:53 pm 15:53 Cloudy with Light Rain 42 5.6 41 5 96 96 NNW 8 13 29.67 1005 6 10 0.05 1.27
4:53 pm 16:53 Cloudy with Light Rain 42 5.6 40 4.4 92 92 NW 12 19 29.69 1006 10 16 0.01 0.25
5:53 pm 17:53 Cloudy with Light Rain 41 5 40 4.4 96 96 NW 9 15 29.72 1006 10 16 0.04 1.02
6:08 pm 18:08 Cloudy 40 4.4 40 4.4 100 100 NNW 8 13 29.73 1007 10 16 0.00 0.00
6:53 pm 18:53 Cloudy 40 4.4 39 3.9 97 97 NW 9 15 29.74 1007 10 16 0.00 0.00
7:13 pm 19:13 Cloudy 40 4.4 39 3.9 97 97 NW 13 20 29.76 1008 10 16 0.00 0.00
7:53 pm 19:53 Cloudy 40 4.4 39 3.9 97 97 WNW 7 11 29.76 1008 10 16 0.00 0.00
8:53 pm 20:53 Clear 37 2.8 36 2.2 96 96 Calm 29.75 1007 10 16 0.00 0.00
9:53 pm 21:53 Mostly Clear 33 0.6 33 0.6 100 100 WSW 8 13 29.75 1008 10 16 0.00 0.00
10:53 pm 22:53 Clear 34 1.1 33 0.6 97 97 W 12 19 29.74 1007 10 16 0.00 0.00
11:53 pm 23:53 Clear 37 2.8 34 1.1 89 89 W 12 19 29.73 1007 10 16 0.00 0.00

Powered by AerisWeather